Retour au catalogue

STARLINK-31160

ActifCommunicationsVLEO
NORAD 58749·PAYLOAD·🇺🇸 United States

Lancé Jan 7, 2024 depuis Cape Canaveral Space Force Station

Loading…

Prochains Passages (prochaines 24 heures)

TLE

FraisSource: CelesTrak SupGP

Époque: Sep 15, 2026, 01:44 UTC

1 58749C 24005X   26258.07270833 -.00019075  00000+0 -69094-3 0  2589
2 58749  42.9998 230.4679 0001325 260.7512 102.4848 15.27585287    19

Suivez STARLINK-31160 en temps réel avec AllMySat

Download on the App Store